Regional Weather Roundup
Issued by NWS

Home | Current Version | Previous Version | Graphics & Text | Print | Product List | Glossary On
Versions: 1 2 3 4 5 6 7 8 9 10 11 12 13 14 15 16 17 18 19 20 21 22 23 24 25 26 27 28 29 30 31 32 33 34 35 36 37 38 39 40 41 42 43 44 45 46 47 48 49 50
207
ASUS43 KLOT 300803
RWRIL

ILLINOIS REGIONAL WEATHER ROUNDUP
NATIONAL WEATHER SERVICE CHICAGO/ROMEOVILLE IL
300 AM CDT FRI SEP 30 2016

NOTE: "FAIR" INDICATES FEW OR NO CLOUDS BELOW 12,000 FEET WITH NO
SIGNIFICANT WEATHER AND/OR OBSTRUCTIONS TO VISIBILITY.

* THESE STATIONS ARE NOT UNDER NWS QUALITY CONTROL. THEY ALSO MAY NOT
  REPORT WEATHER SUCH AS PRECIPITATION OR FOG.

ILZ001-002-007-009-015-016-024-300900-
NORTHWEST ILLINOIS

CITY           SKY/WX    TMP DP  RH WIND       PRES   REMARKS
MOLINE         CLOUDY    60  52  74 N9        30.20F
STERLING*      CLOUDY    58  55  90 N9        30.21R
$$

ILZ003-004-008-010-011-017-018-300900-
NORTH CENTRAL ILLINOIS

CITY           SKY/WX    TMP DP  RH WIND       PRES   REMARKS
ROCKFORD       DRIZZLE   61  56  83 NE13G23   30.22S
FREEPORT*      CLOUDY    57  54  89 N6        30.24S
ROCHELLE*      CLOUDY    59  57  92 NE9       30.19F
$$

ILZ005-006-012>014-019>023-300900-
NORTHEAST ILLINOIS

CITY           SKY/WX    TMP DP  RH WIND       PRES   REMARKS
CHICAGO-OHARE  CLOUDY    60  58  92 NE10      30.16R
CHICAGO-MIDWAY DRIZZLE   61  58  90 NE12      30.14S FOG
AURORA         CLOUDY    61  57  87 N10       30.15F
LANSING*       LGT RAIN  60  60  97 NE9       30.14S
JOLIET*        CLOUDY    62  60  93 NE12      30.14S
WAUKEGAN       CLOUDY    61  58  90 NE10G18   30.18S
DUPAGE AIRPORT LGT RAIN  60  57  89 NE14      30.15F FOG
KANKAKEE*      CLOUDY    59  58  97 NE5       30.13S
WHEELING       CLOUDY    60  58  92 NE10      30.18F
MORRIS*        CLOUDY    60  58  90 NE3       30.13F
ROMEOVILLE*    CLOUDY    59  59 100 NE15      30.14S FOG
NORTHERLY ISL    N/A     61  57  87 NE16        N/A
$$

LMZ740>746-300900-
SOUTHERN LAKE MICHIGAN

STATION/POSITION SKY/WX   TEMP    WIND        PRES    VSBY  WAVE
                          AIR SEA DIR/SP/G                  HT/PER
                          (F)     (DEG/KT/KT) (MB)    (MI)  (FT/S)
SOUTHERN BUOY              63 68   60/ 21/ 27 1021.4          5/ 7
WILMETTE HARBOR            61 56   80/ 16/ 19   N/A           7/ 6
HARRISON CRIB              63      50/ 23/ 24   N/A
BURNHAM HARBOR             61      40/ 15/ 19   N/A
CALUMET HARBOR             62      30/ 13/ 19 1020.2F
BURNS HARBOR               62      60/ 22/ 25 1020.7S
MICHIGAN CITY              59      30/ 17/ 20   N/A
MICHIGAN CITY 6N           61 64   50/ 16/ 21   N/A           7/ 7
ST. JOSEPH                 57 57   20/ 10/ 12 1020.7F         4/ 6
$$

ILZ025>027-034>036-040-047-049-050-058-095>099-300900-
WEST-CENTRAL ILLINOIS

CITY           SKY/WX    TMP DP  RH WIND       PRES   REMARKS
QUINCY         CLOUDY    58  55  90 N7        30.19F
GALESBURG*     MOCLDY    57  53  87 NW7       30.19F
MACOMB*        CLEAR     56  53  91 N9        30.21S
JACKSONVILLE*  CLOUDY    57  56  94 NW8       30.16S
PITTSFIELD*    CLOUDY    61  56  83 N7        30.18S
$$

ILZ028>032-037-038-041>044-048-051>054-059>061-300900-
CENTRAL ILLINOIS

CITY           SKY/WX    TMP DP  RH WIND       PRES   REMARKS
PONTIAC        LGT RAIN  61  61 100 N8        30.14F
BLOOMINGTON    CLOUDY    60  58  92 N12       30.13F
DECATUR        CLOUDY    60  57  89 N8        30.12S
PEORIA         CLOUDY    60  58  92 VRB6      30.16S
LACON*         LGT RAIN  59  56  92 N5        30.17R
LINCOLN*       CLOUDY    60  59  99 N5        30.14S
SPRINGFIELD    PTCLDY    59  57  93 N7        30.13F FOG
TAYLORVILLE    CLOUDY    55  55  99 N6        30.13S FOG
$$

ILZ033-039-045-046-055>057-062-063-300900-
EAST-CENTRAL ILLINOIS

CITY           SKY/WX    TMP DP  RH WIND       PRES   REMARKS
CHAMPAIGN      RAIN      60  58  92 N9        30.10F FOG
RANTOUL*       DRIZZLE   61  60  97 N9        30.10F
MATTOON        LGT RAIN  59  57  93 N7        30.08F FOG
PARIS*         RAIN      59  59 100 CALM      30.08F
$$

ILZ079-100>102-300900-
SOUTHWEST ILLINOIS

CITY           SKY/WX    TMP DP  RH WIND       PRES   REMARKS
ALTON          CLOUDY    58  57  94 CALM      30.13F
BELLEVILLE     CLOUDY    60  60 100 N5        30.10F
CAHOKIA*       CLOUDY    62  57  83 N8        30.13S
SPARTA*        CLOUDY    59  58  97 N5        30.12S
$$

ILZ064>066-069>071-074>076-080>082-084>086-088>090-092>094-300900-
SOUTH-CENTRAL ILLINOIS

CITY           SKY/WX    TMP DP  RH WIND       PRES   REMARKS
CARBONDALE     CLOUDY    59  59 100 NW6       30.09F
EFFINGHAM*     CLOUDY    60  60 100 NW6       30.09F
MARION         CLOUDY    59  59 100 NW3       30.09F FOG
MT. VERNON     PTCLDY    57  52  82 CALM      30.08F
CENTRALIA*     CLOUDY    60  59  99 N8        30.08F FOG
SALEM*         CLOUDY    60  58  94 N7        30.09F FOG
METROPOLIS*    CLOUDY    59  58  94 CALM      30.08F
$$

ILZ067-068-072-073-078-083-087-091-300900-
SOUTHEAST ILLINOIS

CITY           SKY/WX    TMP DP  RH WIND       PRES   REMARKS
LAWRENCEVILLE  LGT RAIN  57  54  89 NW6       30.05F
FLORA*         CLOUDY    59  58  96 NW5       30.08S FOG
FAIRFIELD*       N/A     58  57  97 N5        30.06F
HARRISBURG*    FOG       56  56 100 NW7       30.07F VSB 1/2
ROBINSON*      CLOUDY    56  55  97 NW7       30.07F
CARMI*         MOCLDY    54  54 100 W5        30.05F FOG
$$

ABBREVIATIONS USED IN REMARKS
   TC - TEMPERATURE IN CELSIUS
  WCI - WIND CHILL INDEX
   HX - HEAT INDEX
  VSB - VISIBILITY
$$





USA.gov is the U.S. government's official web portal to all federal, state and local government web resources and services.